Time,TemperatureF,DewpointF,PressureIn,WindDirection,WindDirectionDegrees,WindSpeedMPH,WindSpeedGustMPH,Humidity,HourlyPrecipIn,Conditions,Clouds,dailyrainin,SoftwareType,DateUTC
2013-06-05 00:01:00,66.6,61.2,29.81,North,-999,-999.0,-999.0,83,-99.99,,,-99.99,meteohub,2013-06-05 04:01:00,
2013-06-05 00:02:00,66.6,61.0,29.81,North,-999,-999.0,-999.0,82,-99.99,,,-99.99,meteohub,2013-06-05 04:02:00,
2013-06-05 00:04:00,66.6,61.0,29.81,North,-999,-999.0,-999.0,82,-99.99,,,-99.99,meteohub,2013-06-05 04:04:00,
2013-06-05 00:09:00,66.6,61.0,29.81,North,-999,-999.0,-999.0,82,-99.99,,,-99.99,meteohub,2013-06-05 04:09:00,
2013-06-05 00:14:00,66.6,61.2,29.81,North,-999,-999.0,-999.0,83,-99.99,,,-99.99,meteohub,2013-06-05 04:14:00,
2013-06-05 00:19:00,66.7,61.3,29.81,North,-999,-999.0,-999.0,83,-99.99,,,-99.99,meteohub,2013-06-05 04:19:00,
2013-06-05 00:24:00,66.7,61.3,29.81,North,-999,-999.0,-999.0,83,-99.99,,,-99.99,meteohub,2013-06-05 04:24:00,
2013-06-05 00:29:00,66.9,61.5,29.81,North,-999,-999.0,-999.0,83,-99.99,,,-99.99,meteohub,2013-06-05 04:29:00,
2013-06-05 00:35:00,66.9,61.5,29.81,North,-999,-999.0,-999.0,83,-99.99,,,-99.99,meteohub,2013-06-05 04:35:00,
2013-06-05 00:40:00,66.9,61.5,29.81,North,-999,-999.0,-999.0,83,-99.99,,,-99.99,meteohub,2013-06-05 04:40:00,
2013-06-05 00:45:00,66.9,61.2,29.81,North,-999,-999.0,-999.0,82,-99.99,,,-99.99,meteohub,2013-06-05 04:45:00,
2013-06-05 00:50:00,66.9,61.2,29.81,North,-999,-999.0,-999.0,82,-99.99,,,-99.99,meteohub,2013-06-05 04:50:00,
2013-06-05 00:56:00,66.9,61.2,29.81,North,-999,-999.0,-999.0,82,-99.99,,,-99.99,meteohub,2013-06-05 04:56:00,
2013-06-05 01:01:00,66.9,61.2,29.81,North,-999,-999.0,-999.0,82,-99.99,,,-99.99,meteohub,2013-06-05 05:01:00,
2013-06-05 01:06:00,66.9,61.2,29.81,North,-999,-999.0,-999.0,82,-99.99,,,-99.99,meteohub,2013-06-05 05:06:00,
2013-06-05 01:12:00,66.9,61.2,29.81,North,-999,-999.0,-999.0,82,-99.99,,,-99.99,meteohub,2013-06-05 05:12:00,
2013-06-05 01:17:00,66.9,61.2,29.81,North,-999,-999.0,-999.0,82,-99.99,,,-99.99,meteohub,2013-06-05 05:17:00,
2013-06-05 01:22:00,66.9,61.2,29.81,North,-999,-999.0,-999.0,82,-99.99,,,-99.99,meteohub,2013-06-05 05:22:00,
2013-06-05 01:27:00,67.1,61.3,29.81,North,-999,-999.0,-999.0,82,-99.99,,,-99.99,meteohub,2013-06-05 05:27:00,
2013-06-05 01:32:00,67.3,61.5,29.81,North,-999,-999.0,-999.0,82,-99.99,,,-99.99,meteohub,2013-06-05 05:32:00,
2013-06-05 01:37:00,67.5,61.3,29.78,North,-999,-999.0,-999.0,81,-99.99,,,-99.99,meteohub,2013-06-05 05:37:00,
2013-06-05 01:42:00,67.6,61.5,29.78,North,-999,-999.0,-999.0,81,-99.99,,,-99.99,meteohub,2013-06-05 05:42:00,
2013-06-05 01:47:00,67.8,61.7,29.78,North,-999,-999.0,-999.0,81,-99.99,,,-99.99,meteohub,2013-06-05 05:47:00,
2013-06-05 01:52:00,67.8,61.3,29.81,North,-999,-999.0,-999.0,80,-99.99,,,-99.99,meteohub,2013-06-05 05:52:00,
2013-06-05 01:57:00,68.0,61.2,29.81,North,-999,-999.0,-999.0,79,-99.99,,,-99.99,meteohub,2013-06-05 05:57:00,
2013-06-05 02:02:00,68.0,61.2,29.81,North,-999,-999.0,-999.0,79,-99.99,,,-99.99,meteohub,2013-06-05 06:02:00,
2013-06-05 02:07:00,68.0,61.2,29.81,North,-999,-999.0,-999.0,79,-99.99,,,-99.99,meteohub,2013-06-05 06:07:00,
2013-06-05 02:12:00,68.0,61.2,29.81,North,-999,-999.0,-999.0,79,-99.99,,,-99.99,meteohub,2013-06-05 06:12:00,
2013-06-05 02:17:00,68.0,60.8,29.81,North,-999,-999.0,-999.0,78,-99.99,,,-99.99,meteohub,2013-06-05 06:17:00,
2013-06-05 02:22:00,67.8,61.2,29.81,North,-999,-999.0,-999.0,79,-99.99,,,-99.99,meteohub,2013-06-05 06:22:00,
2013-06-05 02:27:00,67.6,61.0,29.81,North,-999,-999.0,-999.0,79,-99.99,,,-99.99,meteohub,2013-06-05 06:27:00,
2013-06-05 02:32:00,67.5,60.8,29.81,North,-999,-999.0,-999.0,79,-99.99,,,-99.99,meteohub,2013-06-05 06:32:00,
2013-06-05 02:37:00,67.3,60.6,29.78,North,-999,-999.0,-999.0,79,-99.99,,,-99.99,meteohub,2013-06-05 06:37:00,
2013-06-05 02:42:00,67.3,61.0,29.78,North,-999,-999.0,-999.0,80,-99.99,,,-99.99,meteohub,2013-06-05 06:42:00,
2013-06-05 02:47:00,67.1,60.8,29.78,North,-999,-999.0,-999.0,80,-99.99,,,-99.99,meteohub,2013-06-05 06:47:00,
2013-06-05 02:52:00,67.1,60.8,29.81,North,-999,-999.0,-999.0,80,-99.99,,,-99.99,meteohub,2013-06-05 06:52:00,
2013-06-05 02:57:00,66.9,61.0,29.81,North,-999,-999.0,-999.0,81,-99.99,,,-99.99,meteohub,2013-06-05 06:57:00,
2013-06-05 03:02:00,66.9,61.0,29.81,North,-999,-999.0,-999.0,81,-99.99,,,-99.99,meteohub,2013-06-05 07:02:00,
2013-06-05 03:07:00,66.7,60.8,29.81,North,-999,-999.0,-999.0,81,-99.99,,,-99.99,meteohub,2013-06-05 07:07:00,
2013-06-05 03:12:00,66.7,60.8,29.81,North,-999,-999.0,-999.0,81,-99.99,,,-99.99,meteohub,2013-06-05 07:12:00,
2013-06-05 03:17:00,66.6,60.6,29.81,North,-999,-999.0,-999.0,81,-99.99,,,-99.99,meteohub,2013-06-05 07:17:00,
2013-06-05 03:22:00,66.6,60.6,29.78,North,-999,-999.0,-999.0,81,-99.99,,,-99.99,meteohub,2013-06-05 07:22:00,
2013-06-05 03:27:00,66.4,60.4,29.78,North,-999,-999.0,-999.0,81,-99.99,,,-99.99,meteohub,2013-06-05 07:27:00,
2013-06-05 03:32:00,66.4,60.8,29.78,North,-999,-999.0,-999.0,82,-99.99,,,-99.99,meteohub,2013-06-05 07:32:00,
2013-06-05 03:37:00,66.2,60.6,29.78,North,-999,-999.0,-999.0,82,-99.99,,,-99.99,meteohub,2013-06-05 07:37:00,
2013-06-05 03:42:00,66.2,60.6,29.78,North,-999,-999.0,-999.0,82,-99.99,,,-99.99,meteohub,2013-06-05 07:42:00,
2013-06-05 03:48:00,66.0,60.4,29.78,North,-999,-999.0,-999.0,82,-99.99,,,-99.99,meteohub,2013-06-05 07:48:00,
2013-06-05 03:53:00,65.8,60.3,29.78,North,-999,-999.0,-999.0,82,-99.99,,,-99.99,meteohub,2013-06-05 07:53:00,
2013-06-05 03:58:00,65.8,60.6,29.78,North,-999,-999.0,-999.0,83,-99.99,,,-99.99,meteohub,2013-06-05 07:58:00,
2013-06-05 04:03:00,65.7,60.4,29.78,North,-999,-999.0,-999.0,83,-99.99,,,-99.99,meteohub,2013-06-05 08:03:00,
2013-06-05 04:08:00,65.5,60.3,29.78,North,-999,-999.0,-999.0,83,-99.99,,,-99.99,meteohub,2013-06-05 08:08:00,
2013-06-05 04:13:00,65.3,60.1,29.78,North,-999,-999.0,-999.0,83,-99.99,,,-99.99,meteohub,2013-06-05 08:13:00,
2013-06-05 04:19:00,65.3,60.1,29.78,North,-999,-999.0,-999.0,83,-99.99,,,-99.99,meteohub,2013-06-05 08:19:00,
2013-06-05 04:24:00,65.1,60.1,29.78,North,-999,-999.0,-999.0,84,-99.99,,,-99.99,meteohub,2013-06-05 08:24:00,
2013-06-05 04:29:00,64.9,60.1,29.78,North,-999,-999.0,-999.0,84,-99.99,,,-99.99,meteohub,2013-06-05 08:29:00,
2013-06-05 04:34:00,64.8,59.9,29.78,North,-999,-999.0,-999.0,84,-99.99,,,-99.99,meteohub,2013-06-05 08:34:00,
2013-06-05 04:39:00,64.8,60.1,29.78,North,-999,-999.0,-999.0,85,-99.99,,,-99.99,meteohub,2013-06-05 08:39:00,
2013-06-05 04:44:00,64.9,60.3,29.78,North,-999,-999.0,-999.0,85,-99.99,,,-99.99,meteohub,2013-06-05 08:44:00,
2013-06-05 04:49:00,64.9,60.3,29.78,North,-999,-999.0,-999.0,85,-99.99,,,-99.99,meteohub,2013-06-05 08:49:00,
2013-06-05 04:55:00,64.9,60.3,29.78,North,-999,-999.0,-999.0,85,-99.99,,,-99.99,meteohub,2013-06-05 08:55:00,
2013-06-05 05:00:00,65.1,60.8,29.78,North,-999,-999.0,-999.0,86,-99.99,,,-99.99,meteohub,2013-06-05 09:00:00,
2013-06-05 05:05:00,65.1,60.4,29.78,North,-999,-999.0,-999.0,85,-99.99,,,-99.99,meteohub,2013-06-05 09:05:00,
2013-06-05 05:10:00,65.3,60.6,29.78,North,-999,-999.0,-999.0,85,-99.99,,,-99.99,meteohub,2013-06-05 09:10:00,
2013-06-05 05:15:00,65.5,60.8,29.78,North,-999,-999.0,-999.0,85,-99.99,,,-99.99,meteohub,2013-06-05 09:15:00,
2013-06-05 05:21:00,65.7,61.0,29.81,North,-999,-999.0,-999.0,85,-99.99,,,-99.99,meteohub,2013-06-05 09:21:00,
2013-06-05 05:26:00,65.7,60.6,29.81,North,-999,-999.0,-999.0,84,-99.99,,,-99.99,meteohub,2013-06-05 09:26:00,
2013-06-05 05:31:00,65.7,60.6,29.81,North,-999,-999.0,-999.0,84,-99.99,,,-99.99,meteohub,2013-06-05 09:31:00,
2013-06-05 05:36:00,65.7,60.6,29.81,North,-999,-999.0,-999.0,84,-99.99,,,-99.99,meteohub,2013-06-05 09:36:00,
2013-06-05 05:42:00,65.7,60.6,29.81,North,-999,-999.0,-999.0,84,-99.99,,,-99.99,meteohub,2013-06-05 09:42:00,
2013-06-05 05:47:00,65.7,60.6,29.81,North,-999,-999.0,-999.0,84,-99.99,,,-99.99,meteohub,2013-06-05 09:47:00,
2013-06-05 05:52:00,65.7,60.4,29.81,North,-999,-999.0,-999.0,83,-99.99,,,-99.99,meteohub,2013-06-05 09:52:00,
2013-06-05 05:57:00,65.7,60.4,29.81,North,-999,-999.0,-999.0,83,-99.99,,,-99.99,meteohub,2013-06-05 09:57:00,
2013-06-05 06:02:00,65.7,60.4,29.81,North,-999,-999.0,-999.0,83,-99.99,,,-99.99,meteohub,2013-06-05 10:02:00,
2013-06-05 06:07:00,65.7,60.4,29.81,North,-999,-999.0,-999.0,83,-99.99,,,-99.99,meteohub,2013-06-05 10:07:00,
2013-06-05 06:12:00,65.5,59.9,29.81,North,-999,-999.0,-999.0,82,-99.99,,,-99.99,meteohub,2013-06-05 10:12:00,
2013-06-05 06:17:00,65.5,59.9,29.81,North,-999,-999.0,-999.0,82,-99.99,,,-99.99,meteohub,2013-06-05 10:17:00,
2013-06-05 06:22:00,65.5,59.9,29.81,North,-999,-999.0,-999.0,82,-99.99,,,-99.99,meteohub,2013-06-05 10:22:00,
2013-06-05 06:27:00,65.3,59.7,29.81,North,-999,-999.0,-999.0,82,-99.99,,,-99.99,meteohub,2013-06-05 10:27:00,
2013-06-05 06:32:00,65.3,59.7,29.81,North,-999,-999.0,-999.0,82,-99.99,,,-99.99,meteohub,2013-06-05 10:32:00,
2013-06-05 06:37:00,65.3,59.7,29.81,North,-999,-999.0,-999.0,82,-99.99,,,-99.99,meteohub,2013-06-05 10:37:00,
2013-06-05 06:42:00,65.3,59.7,29.81,North,-999,-999.0,-999.0,82,-99.99,,,-99.99,meteohub,2013-06-05 10:42:00,
2013-06-05 06:47:00,65.3,59.7,29.81,North,-999,-999.0,-999.0,82,-99.99,,,-99.99,meteohub,2013-06-05 10:47:00,
2013-06-05 06:52:00,65.3,59.7,29.81,North,-999,-999.0,-999.0,82,-99.99,,,-99.99,meteohub,2013-06-05 10:52:00,
2013-06-05 06:57:00,65.3,59.7,29.81,North,-999,-999.0,-999.0,82,-99.99,,,-99.99,meteohub,2013-06-05 10:57:00,
2013-06-05 07:02:00,65.5,59.9,29.81,North,-999,-999.0,-999.0,82,-99.99,,,-99.99,meteohub,2013-06-05 11:02:00,
2013-06-05 07:07:00,65.5,59.9,29.81,North,-999,-999.0,-999.0,82,-99.99,,,-99.99,meteohub,2013-06-05 11:07:00,
2013-06-05 07:13:00,65.7,60.1,29.81,North,-999,-999.0,-999.0,82,-99.99,,,-99.99,meteohub,2013-06-05 11:13:00,
2013-06-05 07:18:00,65.8,59.9,29.81,North,-999,-999.0,-999.0,81,-99.99,,,-99.99,meteohub,2013-06-05 11:18:00,
2013-06-05 07:23:00,65.8,59.9,29.81,North,-999,-999.0,-999.0,81,-99.99,,,-99.99,meteohub,2013-06-05 11:23:00,
2013-06-05 07:28:00,65.8,60.3,29.81,North,-999,-999.0,-999.0,82,-99.99,,,-99.99,meteohub,2013-06-05 11:28:00,
2013-06-05 07:33:00,66.0,60.1,29.81,North,-999,-999.0,-999.0,81,-99.99,,,-99.99,meteohub,2013-06-05 11:33:00,
2013-06-05 07:38:00,66.0,60.1,29.81,North,-999,-999.0,-999.0,81,-99.99,,,-99.99,meteohub,2013-06-05 11:38:00,
2013-06-05 07:44:00,66.4,60.1,29.81,North,-999,-999.0,-999.0,80,-99.99,,,-99.99,meteohub,2013-06-05 11:44:00,
2013-06-05 07:49:00,66.6,60.3,29.84,North,-999,-999.0,-999.0,80,-99.99,,,-99.99,meteohub,2013-06-05 11:49:00,
2013-06-05 07:54:00,66.9,59.2,29.84,North,-999,-999.0,-999.0,76,-99.99,,,-99.99,meteohub,2013-06-05 11:54:00,
2013-06-05 07:59:00,66.9,59.2,29.84,North,-999,-999.0,-999.0,76,-99.99,,,-99.99,meteohub,2013-06-05 11:59:00,
2013-06-05 08:04:00,66.9,59.5,29.84,North,-999,-999.0,-999.0,77,-99.99,,,-99.99,meteohub,2013-06-05 12:04:00,
2013-06-05 08:09:00,67.1,59.4,29.84,North,-999,-999.0,-999.0,76,-99.99,,,-99.99,meteohub,2013-06-05 12:09:00,
2013-06-05 08:14:00,67.3,58.6,29.84,North,-999,-999.0,-999.0,74,-99.99,,,-99.99,meteohub,2013-06-05 12:14:00,
2013-06-05 08:20:00,67.5,58.5,29.84,North,-999,-999.0,-999.0,73,-99.99,,,-99.99,meteohub,2013-06-05 12:20:00,
2013-06-05 08:25:00,67.6,58.3,29.84,North,-999,-999.0,-999.0,72,-99.99,,,-99.99,meteohub,2013-06-05 12:25:00,
2013-06-05 08:30:00,68.0,58.3,29.84,North,-999,-999.0,-999.0,71,-99.99,,,-99.99,meteohub,2013-06-05 12:30:00,
2013-06-05 08:35:00,68.0,58.3,29.84,North,-999,-999.0,-999.0,71,-99.99,,,-99.99,meteohub,2013-06-05 12:35:00,
2013-06-05 08:40:00,68.0,57.9,29.84,North,-999,-999.0,-999.0,70,-99.99,,,-99.99,meteohub,2013-06-05 12:40:00,
2013-06-05 08:46:00,68.4,57.4,29.84,North,-999,-999.0,-999.0,68,-99.99,,,-99.99,meteohub,2013-06-05 12:46:00,
2013-06-05 08:51:00,68.7,57.4,29.84,North,-999,-999.0,-999.0,67,-99.99,,,-99.99,meteohub,2013-06-05 12:51:00,
2013-06-05 08:56:00,68.9,57.0,29.84,North,-999,-999.0,-999.0,66,-99.99,,,-99.99,meteohub,2013-06-05 12:56:00,
2013-06-05 09:02:00,69.3,54.9,29.84,North,-999,-999.0,-999.0,60,-99.99,,,-99.99,meteohub,2013-06-05 13:02:00,
2013-06-05 09:07:00,69.4,55.9,29.84,North,-999,-999.0,-999.0,62,-99.99,,,-99.99,meteohub,2013-06-05 13:07:00,
2013-06-05 09:12:00,69.8,54.3,29.84,North,-999,-999.0,-999.0,58,-99.99,,,-99.99,meteohub,2013-06-05 13:12:00,
2013-06-05 09:17:00,70.0,55.0,29.84,North,-999,-999.0,-999.0,59,-99.99,,,-99.99,meteohub,2013-06-05 13:17:00,
2013-06-05 09:22:00,70.2,54.7,29.84,North,-999,-999.0,-999.0,58,-99.99,,,-99.99,meteohub,2013-06-05 13:22:00,
2013-06-05 09:27:00,70.5,55.6,29.84,North,-999,-999.0,-999.0,59,-99.99,,,-99.99,meteohub,2013-06-05 13:27:00,
2013-06-05 09:32:00,70.5,55.0,29.84,North,-999,-999.0,-999.0,58,-99.99,,,-99.99,meteohub,2013-06-05 13:32:00,
2013-06-05 09:37:00,70.5,54.1,29.84,North,-999,-999.0,-999.0,56,-99.99,,,-99.99,meteohub,2013-06-05 13:37:00,
2013-06-05 09:42:00,70.5,54.5,29.84,North,-999,-999.0,-999.0,57,-99.99,,,-99.99,meteohub,2013-06-05 13:42:00,
2013-06-05 09:47:00,70.3,54.9,29.84,North,-999,-999.0,-999.0,58,-99.99,,,-99.99,meteohub,2013-06-05 13:47:00,
2013-06-05 09:52:00,70.7,55.2,29.84,North,-999,-999.0,-999.0,58,-99.99,,,-99.99,meteohub,2013-06-05 13:52:00,
2013-06-05 09:57:00,71.1,55.6,29.84,North,-999,-999.0,-999.0,58,-99.99,,,-99.99,meteohub,2013-06-05 13:57:00,
2013-06-05 10:02:00,71.2,56.1,29.84,North,-999,-999.0,-999.0,59,-99.99,,,-99.99,meteohub,2013-06-05 14:02:00,
2013-06-05 10:07:00,71.6,56.1,29.84,North,-999,-999.0,-999.0,58,-99.99,,,-99.99,meteohub,2013-06-05 14:07:00,
2013-06-05 10:12:00,72.0,56.3,29.84,North,-999,-999.0,-999.0,58,-99.99,,,-99.99,meteohub,2013-06-05 14:12:00,
2013-06-05 10:18:00,72.5,56.8,29.84,North,-999,-999.0,-999.0,58,-99.99,,,-99.99,meteohub,2013-06-05 14:18:00,
2013-06-05 10:23:00,72.9,57.2,29.84,North,-999,-999.0,-999.0,58,-99.99,,,-99.99,meteohub,2013-06-05 14:23:00,
2013-06-05 10:28:00,73.0,57.4,29.84,North,-999,-999.0,-999.0,58,-99.99,,,-99.99,meteohub,2013-06-05 14:28:00,
2013-06-05 10:33:00,73.4,57.2,29.84,North,-999,-999.0,-999.0,57,-99.99,,,-99.99,meteohub,2013-06-05 14:33:00,
2013-06-05 10:38:00,73.4,57.7,29.84,North,-999,-999.0,-999.0,58,-99.99,,,-99.99,meteohub,2013-06-05 14:38:00,
2013-06-05 10:44:00,73.8,57.6,29.84,North,-999,-999.0,-999.0,57,-99.99,,,-99.99,meteohub,2013-06-05 14:44:00,
2013-06-05 10:49:00,73.8,57.0,29.84,North,-999,-999.0,-999.0,56,-99.99,,,-99.99,meteohub,2013-06-05 14:49:00,
2013-06-05 10:54:00,73.8,57.6,29.84,North,-999,-999.0,-999.0,57,-99.99,,,-99.99,meteohub,2013-06-05 14:54:00,
2013-06-05 10:59:00,73.9,57.2,29.84,North,-999,-999.0,-999.0,56,-99.99,,,-99.99,meteohub,2013-06-05 14:59:00,
2013-06-05 11:04:00,74.1,57.4,29.84,North,-999,-999.0,-999.0,56,-99.99,,,-99.99,meteohub,2013-06-05 15:04:00,
2013-06-05 11:09:00,74.1,56.8,29.84,North,-999,-999.0,-999.0,55,-99.99,,,-99.99,meteohub,2013-06-05 15:09:00,
2013-06-05 11:15:00,74.1,56.8,29.84,North,-999,-999.0,-999.0,55,-99.99,,,-99.99,meteohub,2013-06-05 15:15:00,
2013-06-05 11:20:00,74.3,57.0,29.84,North,-999,-999.0,-999.0,55,-99.99,,,-99.99,meteohub,2013-06-05 15:20:00,
2013-06-05 11:25:00,74.5,57.2,29.84,North,-999,-999.0,-999.0,55,-99.99,,,-99.99,meteohub,2013-06-05 15:25:00,
2013-06-05 11:30:00,74.5,57.2,29.84,North,-999,-999.0,-999.0,55,-99.99,,,-99.99,meteohub,2013-06-05 15:30:00,
2013-06-05 11:36:00,74.7,56.8,29.84,North,-999,-999.0,-999.0,54,-99.99,,,-99.99,meteohub,2013-06-05 15:36:00,
2013-06-05 11:41:00,75.2,57.4,29.84,North,-999,-999.0,-999.0,54,-99.99,,,-99.99,meteohub,2013-06-05 15:41:00,
2013-06-05 11:46:00,75.7,56.8,29.84,North,-999,-999.0,-999.0,52,-99.99,,,-99.99,meteohub,2013-06-05 15:46:00,
2013-06-05 11:51:00,76.3,57.9,29.84,North,-999,-999.0,-999.0,53,-99.99,,,-99.99,meteohub,2013-06-05 15:51:00,
2013-06-05 11:56:00,77.4,58.3,29.84,North,-999,-999.0,-999.0,52,-99.99,,,-99.99,meteohub,2013-06-05 15:56:00,
2013-06-05 12:02:00,77.7,56.5,29.84,North,-999,-999.0,-999.0,48,-99.99,,,-99.99,meteohub,2013-06-05 16:02:00,
2013-06-05 12:07:00,77.9,56.7,29.84,North,-999,-999.0,-999.0,48,-99.99,,,-99.99,meteohub,2013-06-05 16:07:00,
2013-06-05 12:12:00,78.4,54.7,29.84,North,-999,-999.0,-999.0,44,-99.99,,,-99.99,meteohub,2013-06-05 16:12:00,
2013-06-05 12:17:00,79.0,55.2,29.84,North,-999,-999.0,-999.0,44,-99.99,,,-99.99,meteohub,2013-06-05 16:17:00,
2013-06-05 12:22:00,79.3,55.6,29.84,North,-999,-999.0,-999.0,44,-99.99,,,-99.99,meteohub,2013-06-05 16:22:00,
2013-06-05 12:27:00,79.9,55.9,29.84,North,-999,-999.0,-999.0,44,-99.99,,,-99.99,meteohub,2013-06-05 16:27:00,
2013-06-05 12:32:00,80.1,54.9,29.84,North,-999,-999.0,-999.0,42,-99.99,,,-99.99,meteohub,2013-06-05 16:32:00,
2013-06-05 12:37:00,80.1,54.9,29.84,North,-999,-999.0,-999.0,42,-99.99,,,-99.99,meteohub,2013-06-05 16:37:00,
2013-06-05 12:42:00,80.2,54.3,29.84,North,-999,-999.0,-999.0,41,-99.99,,,-99.99,meteohub,2013-06-05 16:42:00,
2013-06-05 12:47:00,79.7,54.0,29.84,North,-999,-999.0,-999.0,41,-99.99,,,-99.99,meteohub,2013-06-05 16:47:00,
2013-06-05 12:52:00,79.5,53.8,29.81,North,-999,-999.0,-999.0,41,-99.99,,,-99.99,meteohub,2013-06-05 16:52:00,
2013-06-05 12:57:00,79.3,53.6,29.81,North,-999,-999.0,-999.0,41,-99.99,,,-99.99,meteohub,2013-06-05 16:57:00,
2013-06-05 13:02:00,79.3,54.3,29.81,North,-999,-999.0,-999.0,42,-99.99,,,-99.99,meteohub,2013-06-05 17:02:00,
2013-06-05 13:07:00,79.3,52.9,29.81,North,-999,-999.0,-999.0,40,-99.99,,,-99.99,meteohub,2013-06-05 17:07:00,
2013-06-05 13:12:00,80.2,53.8,29.81,North,-999,-999.0,-999.0,40,-99.99,,,-99.99,meteohub,2013-06-05 17:12:00,
2013-06-05 13:17:00,81.1,54.5,29.81,North,-999,-999.0,-999.0,40,-99.99,,,-99.99,meteohub,2013-06-05 17:17:00,
2013-06-05 13:22:00,81.9,55.2,29.81,North,-999,-999.0,-999.0,40,-99.99,,,-99.99,meteohub,2013-06-05 17:22:00,
2013-06-05 13:27:00,80.8,52.9,29.81,North,-999,-999.0,-999.0,38,-99.99,,,-99.99,meteohub,2013-06-05 17:27:00,
2013-06-05 13:32:00,80.4,51.1,29.81,North,-999,-999.0,-999.0,36,-99.99,,,-99.99,meteohub,2013-06-05 17:32:00,
2013-06-05 13:38:00,79.5,51.6,29.81,North,-999,-999.0,-999.0,38,-99.99,,,-99.99,meteohub,2013-06-05 17:38:00,
2013-06-05 13:43:00,79.0,52.0,29.81,North,-999,-999.0,-999.0,39,-99.99,,,-99.99,meteohub,2013-06-05 17:43:00,
2013-06-05 13:48:00,78.6,51.6,29.81,North,-999,-999.0,-999.0,39,-99.99,,,-99.99,meteohub,2013-06-05 17:48:00,
2013-06-05 13:53:00,78.6,52.3,29.81,North,-999,-999.0,-999.0,40,-99.99,,,-99.99,meteohub,2013-06-05 17:53:00,
2013-06-05 13:58:00,78.4,52.2,29.81,North,-999,-999.0,-999.0,40,-99.99,,,-99.99,meteohub,2013-06-05 17:58:00,
2013-06-05 14:03:00,78.4,52.9,29.81,North,-999,-999.0,-999.0,41,-99.99,,,-99.99,meteohub,2013-06-05 18:03:00,
2013-06-05 14:09:00,78.4,52.2,29.81,North,-999,-999.0,-999.0,40,-99.99,,,-99.99,meteohub,2013-06-05 18:09:00,
2013-06-05 14:14:00,78.3,52.7,29.81,North,-999,-999.0,-999.0,41,-99.99,,,-99.99,meteohub,2013-06-05 18:14:00,
2013-06-05 14:19:00,78.4,52.2,29.81,North,-999,-999.0,-999.0,40,-99.99,,,-99.99,meteohub,2013-06-05 18:19:00,
2013-06-05 14:24:00,78.6,52.9,29.81,North,-999,-999.0,-999.0,41,-99.99,,,-99.99,meteohub,2013-06-05 18:24:00,
2013-06-05 14:29:00,78.4,53.4,29.81,North,-999,-999.0,-999.0,42,-99.99,,,-99.99,meteohub,2013-06-05 18:29:00,
2013-06-05 14:34:00,78.4,53.4,29.81,North,-999,-999.0,-999.0,42,-99.99,,,-99.99,meteohub,2013-06-05 18:34:00,
2013-06-05 14:40:00,78.3,53.2,29.81,North,-999,-999.0,-999.0,42,-99.99,,,-99.99,meteohub,2013-06-05 18:40:00,
2013-06-05 14:45:00,78.3,53.2,29.81,North,-999,-999.0,-999.0,42,-99.99,,,-99.99,meteohub,2013-06-05 18:45:00,
2013-06-05 14:50:00,78.3,53.2,29.81,North,-999,-999.0,-999.0,42,-99.99,,,-99.99,meteohub,2013-06-05 18:50:00,
2013-06-05 14:55:00,78.3,54.0,29.81,North,-999,-999.0,-999.0,43,-99.99,,,-99.99,meteohub,2013-06-05 18:55:00,
2013-06-05 15:00:00,78.6,54.3,29.81,North,-999,-999.0,-999.0,43,-99.99,,,-99.99,meteohub,2013-06-05 19:00:00,
2013-06-05 15:06:00,78.8,53.1,29.78,North,-999,-999.0,-999.0,41,-99.99,,,-99.99,meteohub,2013-06-05 19:06:00,
2013-06-05 15:11:00,79.0,54.0,29.78,North,-999,-999.0,-999.0,42,-99.99,,,-99.99,meteohub,2013-06-05 19:11:00,
2013-06-05 15:16:00,79.2,54.1,29.78,North,-999,-999.0,-999.0,42,-99.99,,,-99.99,meteohub,2013-06-05 19:16:00,
2013-06-05 15:21:00,79.5,53.8,29.78,North,-999,-999.0,-999.0,41,-99.99,,,-99.99,meteohub,2013-06-05 19:21:00,
2013-06-05 15:26:00,79.9,54.1,29.78,North,-999,-999.0,-999.0,41,-99.99,,,-99.99,meteohub,2013-06-05 19:26:00,
2013-06-05 15:31:00,80.6,54.1,29.78,North,-999,-999.0,-999.0,40,-99.99,,,-99.99,meteohub,2013-06-05 19:31:00,
2013-06-05 15:37:00,80.4,54.5,29.78,North,-999,-999.0,-999.0,41,-99.99,,,-99.99,meteohub,2013-06-05 19:37:00,
2013-06-05 15:42:00,80.4,54.0,29.78,North,-999,-999.0,-999.0,40,-99.99,,,-99.99,meteohub,2013-06-05 19:42:00,
2013-06-05 15:47:00,80.8,53.6,29.78,North,-999,-999.0,-999.0,39,-99.99,,,-99.99,meteohub,2013-06-05 19:47:00,
2013-06-05 15:52:00,80.6,53.4,29.78,North,-999,-999.0,-999.0,39,-99.99,,,-99.99,meteohub,2013-06-05 19:52:00,
2013-06-05 15:57:00,80.6,54.1,29.78,North,-999,-999.0,-999.0,40,-99.99,,,-99.99,meteohub,2013-06-05 19:57:00,
2013-06-05 16:02:00,80.2,54.3,29.78,North,-999,-999.0,-999.0,41,-99.99,,,-99.99,meteohub,2013-06-05 20:02:00,
2013-06-05 16:07:00,79.9,54.1,29.78,North,-999,-999.0,-999.0,41,-99.99,,,-99.99,meteohub,2013-06-05 20:07:00,
2013-06-05 16:13:00,79.9,54.1,29.78,North,-999,-999.0,-999.0,41,-99.99,,,-99.99,meteohub,2013-06-05 20:13:00,
2013-06-05 16:18:00,80.1,54.3,29.78,North,-999,-999.0,-999.0,41,-99.99,,,-99.99,meteohub,2013-06-05 20:18:00,
2013-06-05 16:23:00,80.2,54.3,29.78,North,-999,-999.0,-999.0,41,-99.99,,,-99.99,meteohub,2013-06-05 20:23:00,
2013-06-05 16:28:00,80.4,54.0,29.78,North,-999,-999.0,-999.0,40,-99.99,,,-99.99,meteohub,2013-06-05 20:28:00,
2013-06-05 16:33:00,80.6,54.1,29.78,North,-999,-999.0,-999.0,40,-99.99,,,-99.99,meteohub,2013-06-05 20:33:00,
2013-06-05 16:38:00,80.2,53.8,29.78,North,-999,-999.0,-999.0,40,-99.99,,,-99.99,meteohub,2013-06-05 20:38:00,
2013-06-05 16:43:00,79.9,54.1,29.78,North,-999,-999.0,-999.0,41,-99.99,,,-99.99,meteohub,2013-06-05 20:43:00,
2013-06-05 16:49:00,79.7,54.5,29.78,North,-999,-999.0,-999.0,42,-99.99,,,-99.99,meteohub,2013-06-05 20:49:00,
2013-06-05 16:54:00,79.3,54.3,29.78,North,-999,-999.0,-999.0,42,-99.99,,,-99.99,meteohub,2013-06-05 20:54:00,
2013-06-05 16:59:00,79.3,54.3,29.78,North,-999,-999.0,-999.0,42,-99.99,,,-99.99,meteohub,2013-06-05 20:59:00,
2013-06-05 17:04:00,78.8,55.0,29.78,North,-999,-999.0,-999.0,44,-99.99,,,-99.99,meteohub,2013-06-05 21:04:00,
2013-06-05 17:09:00,78.6,55.6,29.78,North,-999,-999.0,-999.0,45,-99.99,,,-99.99,meteohub,2013-06-05 21:09:00,
2013-06-05 17:15:00,78.8,55.0,29.78,North,-999,-999.0,-999.0,44,-99.99,,,-99.99,meteohub,2013-06-05 21:15:00,
2013-06-05 17:20:00,78.6,55.6,29.78,North,-999,-999.0,-999.0,45,-99.99,,,-99.99,meteohub,2013-06-05 21:20:00,
2013-06-05 17:25:00,78.3,55.2,29.78,North,-999,-999.0,-999.0,45,-99.99,,,-99.99,meteohub,2013-06-05 21:25:00,
2013-06-05 17:30:00,78.3,55.2,29.78,North,-999,-999.0,-999.0,45,-99.99,,,-99.99,meteohub,2013-06-05 21:30:00,
2013-06-05 17:35:00,78.3,55.2,29.78,North,-999,-999.0,-999.0,45,-99.99,,,-99.99,meteohub,2013-06-05 21:35:00,
2013-06-05 17:40:00,78.3,54.5,29.78,North,-999,-999.0,-999.0,44,-99.99,,,-99.99,meteohub,2013-06-05 21:40:00,
2013-06-05 17:46:00,78.3,54.0,29.78,North,-999,-999.0,-999.0,43,-99.99,,,-99.99,meteohub,2013-06-05 21:46:00,
2013-06-05 17:51:00,78.3,54.5,29.75,North,-999,-999.0,-999.0,44,-99.99,,,-99.99,meteohub,2013-06-05 21:51:00,
2013-06-05 17:56:00,78.3,54.5,29.75,North,-999,-999.0,-999.0,44,-99.99,,,-99.99,meteohub,2013-06-05 21:56:00,
2013-06-05 18:01:00,78.1,53.8,29.75,North,-999,-999.0,-999.0,43,-99.99,,,-99.99,meteohub,2013-06-05 22:01:00,
2013-06-05 18:06:00,78.1,53.8,29.75,North,-999,-999.0,-999.0,43,-99.99,,,-99.99,meteohub,2013-06-05 22:06:00,
2013-06-05 18:11:00,77.9,54.3,29.75,North,-999,-999.0,-999.0,44,-99.99,,,-99.99,meteohub,2013-06-05 22:11:00,
2013-06-05 18:16:00,77.7,54.1,29.75,North,-999,-999.0,-999.0,44,-99.99,,,-99.99,meteohub,2013-06-05 22:16:00,
2013-06-05 18:22:00,77.5,54.0,29.75,North,-999,-999.0,-999.0,44,-99.99,,,-99.99,meteohub,2013-06-05 22:22:00,
2013-06-05 18:27:00,77.5,54.0,29.75,North,-999,-999.0,-999.0,44,-99.99,,,-99.99,meteohub,2013-06-05 22:27:00,
2013-06-05 18:32:00,77.5,54.0,29.75,North,-999,-999.0,-999.0,44,-99.99,,,-99.99,meteohub,2013-06-05 22:32:00,
2013-06-05 18:37:00,77.5,53.2,29.75,North,-999,-999.0,-999.0,43,-99.99,,,-99.99,meteohub,2013-06-05 22:37:00,
2013-06-05 18:42:00,77.4,54.3,29.75,North,-999,-999.0,-999.0,45,-99.99,,,-99.99,meteohub,2013-06-05 22:42:00,
2013-06-05 18:47:00,77.2,53.6,29.75,North,-999,-999.0,-999.0,44,-99.99,,,-99.99,meteohub,2013-06-05 22:47:00,
2013-06-05 18:52:00,77.0,53.4,29.75,North,-999,-999.0,-999.0,44,-99.99,,,-99.99,meteohub,2013-06-05 22:52:00,
2013-06-05 18:57:00,76.8,54.0,29.75,North,-999,-999.0,-999.0,45,-99.99,,,-99.99,meteohub,2013-06-05 22:57:00,
2013-06-05 19:02:00,76.8,54.0,29.75,North,-999,-999.0,-999.0,45,-99.99,,,-99.99,meteohub,2013-06-05 23:02:00,
2013-06-05 19:07:00,76.6,53.8,29.75,North,-999,-999.0,-999.0,45,-99.99,,,-99.99,meteohub,2013-06-05 23:07:00,
2013-06-05 19:12:00,76.6,54.3,29.75,North,-999,-999.0,-999.0,46,-99.99,,,-99.99,meteohub,2013-06-05 23:12:00,
2013-06-05 19:18:00,76.5,54.1,29.75,North,-999,-999.0,-999.0,46,-99.99,,,-99.99,meteohub,2013-06-05 23:18:00,
2013-06-05 19:23:00,76.3,54.0,29.75,North,-999,-999.0,-999.0,46,-99.99,,,-99.99,meteohub,2013-06-05 23:23:00,
2013-06-05 19:28:00,75.9,54.3,29.75,North,-999,-999.0,-999.0,47,-99.99,,,-99.99,meteohub,2013-06-05 23:28:00,
2013-06-05 19:33:00,75.7,53.4,29.75,North,-999,-999.0,-999.0,46,-99.99,,,-99.99,meteohub,2013-06-05 23:33:00,
2013-06-05 19:39:00,75.7,53.4,29.75,North,-999,-999.0,-999.0,46,-99.99,,,-99.99,meteohub,2013-06-05 23:39:00,
2013-06-05 19:44:00,75.6,53.4,29.75,North,-999,-999.0,-999.0,46,-99.99,,,-99.99,meteohub,2013-06-05 23:44:00,
2013-06-05 19:49:00,75.6,54.0,29.75,North,-999,-999.0,-999.0,47,-99.99,,,-99.99,meteohub,2013-06-05 23:49:00,
2013-06-05 19:54:00,75.4,53.8,29.75,North,-999,-999.0,-999.0,47,-99.99,,,-99.99,meteohub,2013-06-05 23:54:00,
2013-06-05 19:59:00,75.2,53.6,29.75,North,-999,-999.0,-999.0,47,-99.99,,,-99.99,meteohub,2013-06-05 23:59:00,
2013-06-05 20:04:00,75.2,53.6,29.75,North,-999,-999.0,-999.0,47,-99.99,,,-99.99,meteohub,2013-06-06 00:04:00,
2013-06-05 20:10:00,75.2,54.1,29.75,North,-999,-999.0,-999.0,48,-99.99,,,-99.99,meteohub,2013-06-06 00:10:00,
2013-06-05 20:15:00,75.2,53.6,29.75,North,-999,-999.0,-999.0,47,-99.99,,,-99.99,meteohub,2013-06-06 00:15:00,
2013-06-05 20:20:00,75.4,53.8,29.75,North,-999,-999.0,-999.0,47,-99.99,,,-99.99,meteohub,2013-06-06 00:20:00,
2013-06-05 20:25:00,75.4,54.9,29.75,North,-999,-999.0,-999.0,49,-99.99,,,-99.99,meteohub,2013-06-06 00:25:00,
2013-06-05 20:30:00,75.0,54.0,29.75,North,-999,-999.0,-999.0,48,-99.99,,,-99.99,meteohub,2013-06-06 00:30:00,
2013-06-05 20:35:00,74.8,54.3,29.75,North,-999,-999.0,-999.0,49,-99.99,,,-99.99,meteohub,2013-06-06 00:35:00,
2013-06-05 20:40:00,74.8,54.3,29.75,North,-999,-999.0,-999.0,49,-99.99,,,-99.99,meteohub,2013-06-06 00:40:00,
2013-06-05 20:46:00,74.7,54.3,29.75,North,-999,-999.0,-999.0,49,-99.99,,,-99.99,meteohub,2013-06-06 00:46:00,
2013-06-05 20:51:00,74.5,54.7,29.75,North,-999,-999.0,-999.0,50,-99.99,,,-99.99,meteohub,2013-06-06 00:51:00,
2013-06-05 20:56:00,74.3,54.5,29.75,North,-999,-999.0,-999.0,50,-99.99,,,-99.99,meteohub,2013-06-06 00:56:00,
2013-06-05 21:01:00,74.3,54.5,29.75,North,-999,-999.0,-999.0,50,-99.99,,,-99.99,meteohub,2013-06-06 01:01:00,
2013-06-05 21:06:00,74.3,54.5,29.75,North,-999,-999.0,-999.0,50,-99.99,,,-99.99,meteohub,2013-06-06 01:06:00,
2013-06-05 21:11:00,74.3,54.5,29.75,North,-999,-999.0,-999.0,50,-99.99,,,-99.99,meteohub,2013-06-06 01:11:00,
2013-06-05 21:17:00,74.1,53.8,29.75,North,-999,-999.0,-999.0,49,-99.99,,,-99.99,meteohub,2013-06-06 01:17:00,
2013-06-05 21:22:00,74.1,53.8,29.75,North,-999,-999.0,-999.0,49,-99.99,,,-99.99,meteohub,2013-06-06 01:22:00,
2013-06-05 21:27:00,74.1,53.8,29.75,North,-999,-999.0,-999.0,49,-99.99,,,-99.99,meteohub,2013-06-06 01:27:00,
2013-06-05 21:32:00,73.9,53.6,29.75,North,-999,-999.0,-999.0,49,-99.99,,,-99.99,meteohub,2013-06-06 01:32:00,
2013-06-05 21:37:00,73.8,53.4,29.75,North,-999,-999.0,-999.0,49,-99.99,,,-99.99,meteohub,2013-06-06 01:37:00,
2013-06-05 21:42:00,73.8,53.4,29.75,North,-999,-999.0,-999.0,49,-99.99,,,-99.99,meteohub,2013-06-06 01:42:00,
2013-06-05 21:47:00,73.6,53.2,29.75,North,-999,-999.0,-999.0,49,-99.99,,,-99.99,meteohub,2013-06-06 01:47:00,
2013-06-05 21:52:00,73.4,53.6,29.75,North,-999,-999.0,-999.0,50,-99.99,,,-99.99,meteohub,2013-06-06 01:52:00,
2013-06-05 21:57:00,73.4,54.1,29.75,North,-999,-999.0,-999.0,51,-99.99,,,-99.99,meteohub,2013-06-06 01:57:00,
2013-06-05 22:02:00,73.4,54.1,29.75,North,-999,-999.0,-999.0,51,-99.99,,,-99.99,meteohub,2013-06-06 02:02:00,
2013-06-05 22:07:00,73.4,54.7,29.75,North,-999,-999.0,-999.0,52,-99.99,,,-99.99,meteohub,2013-06-06 02:07:00,
2013-06-05 22:12:00,73.4,54.7,29.75,North,-999,-999.0,-999.0,52,-99.99,,,-99.99,meteohub,2013-06-06 02:12:00,
2013-06-05 22:17:00,73.4,54.1,29.75,North,-999,-999.0,-999.0,51,-99.99,,,-99.99,meteohub,2013-06-06 02:17:00,
2013-06-05 22:22:00,73.6,53.8,29.75,North,-999,-999.0,-999.0,50,-99.99,,,-99.99,meteohub,2013-06-06 02:22:00,
2013-06-05 22:28:00,73.8,53.4,29.75,North,-999,-999.0,-999.0,49,-99.99,,,-99.99,meteohub,2013-06-06 02:28:00,
2013-06-05 22:33:00,73.9,53.6,29.75,North,-999,-999.0,-999.0,49,-99.99,,,-99.99,meteohub,2013-06-06 02:33:00,
2013-06-05 22:38:00,73.9,53.6,29.75,North,-999,-999.0,-999.0,49,-99.99,,,-99.99,meteohub,2013-06-06 02:38:00,
2013-06-05 22:43:00,74.1,53.8,29.75,North,-999,-999.0,-999.0,49,-99.99,,,-99.99,meteohub,2013-06-06 02:43:00,
2013-06-05 22:48:00,73.9,53.6,29.75,North,-999,-999.0,-999.0,49,-99.99,,,-99.99,meteohub,2013-06-06 02:48:00,
2013-06-05 22:53:00,74.1,53.8,29.75,North,-999,-999.0,-999.0,49,-99.99,,,-99.99,meteohub,2013-06-06 02:53:00,
2013-06-05 22:58:00,74.1,53.8,29.75,North,-999,-999.0,-999.0,49,-99.99,,,-99.99,meteohub,2013-06-06 02:58:00,
2013-06-05 23:04:00,73.9,53.6,29.75,North,-999,-999.0,-999.0,49,-99.99,,,-99.99,meteohub,2013-06-06 03:04:00,
2013-06-05 23:09:00,73.9,54.1,29.75,North,-999,-999.0,-999.0,50,-99.99,,,-99.99,meteohub,2013-06-06 03:09:00,
2013-06-05 23:14:00,73.9,54.1,29.75,North,-999,-999.0,-999.0,50,-99.99,,,-99.99,meteohub,2013-06-06 03:14:00,
2013-06-05 23:19:00,73.8,54.0,29.75,North,-999,-999.0,-999.0,50,-99.99,,,-99.99,meteohub,2013-06-06 03:19:00,
2013-06-05 23:24:00,73.8,54.0,29.75,North,-999,-999.0,-999.0,50,-99.99,,,-99.99,meteohub,2013-06-06 03:24:00,
2013-06-05 23:29:00,73.6,53.8,29.75,North,-999,-999.0,-999.0,50,-99.99,,,-99.99,meteohub,2013-06-06 03:29:00,
2013-06-05 23:34:00,73.6,53.8,29.75,North,-999,-999.0,-999.0,50,-99.99,,,-99.99,meteohub,2013-06-06 03:34:00,
2013-06-05 23:40:00,73.4,53.6,29.75,North,-999,-999.0,-999.0,50,-99.99,,,-99.99,meteohub,2013-06-06 03:40:00,
2013-06-05 23:45:00,73.4,53.6,29.75,North,-999,-999.0,-999.0,50,-99.99,,,-99.99,meteohub,2013-06-06 03:45:00,
2013-06-05 23:50:00,73.2,53.4,29.75,North,-999,-999.0,-999.0,50,-99.99,,,-99.99,meteohub,2013-06-06 03:50:00,
2013-06-05 23:55:00,73.0,53.2,29.75,North,-999,-999.0,-999.0,50,-99.99,,,-99.99,meteohub,2013-06-06 03:55:00,